Location: Newark
(35.6799°N, 139.7636°E)
Time: 14:21:40
(UTC+00:00)

Vanguard 3 - Pass Details

Date: 18 December 2019
Orbit: 507 x 3263 km, 33.4° (Epoch: 22 January)

Event Time Altitude Azimuth Distance (km) Brightness Sun altitude
Exits shadow 19:41:05 27° 197° (SSW) 1,253 8.0 -24.4°
Maximum altitude 19:42:48 37° 154° (SSE) 1,121 8.1 -24.1°
Drops below altitude 10° 19:48:32 10° 89° (E) 2,820 10.9 -23.0°
Sets 19:52:12 0° 82° (E) 4,219 12.0 -22.2°
